Black River Falls, WI

6:57 AM CST on December 10, 2016 (GMT -0600)
Black River Falls Area

Weather History for KBCK - February, 2013

Change the Weather History Date:

Tuesday, February 12, 2013

  Actual Average (KCMY) Record (KCMY)
Temperature  
Mean Temperature 24 °F -  
Max Temperature 33 °F 27 °F 51 °F (2005)
Min Temperature 15 °F 7 °F -26 °F (1967)
Degree Days  
Heating Degree Days 41    
Moisture  
Dew Point 18 °F    
Average Humidity 76    
Maximum Humidity 100    
Minimum Humidity 60    
Precipitation  
Precipitation 0.00 in - - ()
Sea Level Pressure  
Sea Level Pressure 29.94 in    
Wind  
Wind Speed 7 mph (SW)    
Max Wind Speed 14 mph    
Max Gust Speed 16 mph    
Visibility 9 miles    
Events Snow    
Averages and records for this station are not official NWS values.
T = Trace of Precipitation, MM = Missing Value Source: NWS Daily Summary

Daily Weather History Graph

Daily Weather History Graph

Search for Another Location

Airport or City:

Trip Planner

Search our weather history database for the weather conditions in past years. The results will help you decide how hot, cold, wet, or windy it might be!

Date:

Astronomy

Feb. 12, 2013 Rise Set
Actual Time 7:06 AM CST 5:28 PM CST
Civil Twilight 6:37 AM CST 5:58 PM CST
Nautical Twilight 6:02 AM CST 6:32 PM CST
Astronomical Twilight 5:29 AM CST 7:06 PM CST
Moon 7:56 AM CST (2/12) 8:39 PM CST (2/12)
Length of Visible Light 11h 21m
Length of Day
10h 22m
Waxing Crescent, 7% of the Moon is Illuminated
Feb 12
Waxing Crescent
Feb 17
First Quarter
Feb 25
Full
Mar 4
Last Quarter
Mar 11
New

Hourly Weather History & Observations

Time (CST) Temp. Windchill Dew Point Humidity Pressure Visibility Wind Dir Wind Speed Gust Speed Precip Events Conditions
12:15 AM 23.0 °F 12.4 °F 17.6 °F 80% 29.99 in 10.0 mi West 10.4 mph - N/A   Overcast
12:35 AM 23.0 °F 10.6 °F 17.6 °F 80% 30.00 in 10.0 mi West 13.8 mph - N/A   Overcast
12:55 AM 23.0 °F 11.7 °F 17.6 °F 80% 30.00 in 10.0 mi West 11.5 mph - N/A   Overcast
1:15 AM 23.0 °F 12.4 °F 17.6 °F 80% 30.00 in 10.0 mi WSW 10.4 mph - N/A   Overcast
1:35 AM 21.2 °F 10.1 °F 15.8 °F 80% 30.01 in 10.0 mi WSW 10.4 mph - N/A   Overcast
1:55 AM 21.2 °F 12.6 °F 15.8 °F 80% 30.01 in 10.0 mi WSW 6.9 mph - N/A Snow Light Snow
2:15 AM 21.2 °F 12.6 °F 15.8 °F 80% 30.01 in 10.0 mi West 6.9 mph - N/A Snow Light Snow
2:35 AM 21.2 °F 11.7 °F 15.8 °F 80% 30.01 in 10.0 mi West 8.1 mph - N/A   Overcast
2:55 AM 21.2 °F 11.7 °F 15.8 °F 80% 30.01 in 10.0 mi West 8.1 mph - N/A   Overcast
3:15 AM 21.2 °F 13.6 °F 15.8 °F 80% 30.01 in 10.0 mi West 5.8 mph - N/A   Overcast
3:35 AM 21.2 °F 13.6 °F 14.0 °F 74% 30.01 in 10.0 mi WSW 5.8 mph - N/A   Overcast
3:55 AM 21.2 °F 11.7 °F 14.0 °F 74% 30.02 in 10.0 mi WSW 8.1 mph - N/A Snow Light Snow
4:15 AM 21.2 °F 13.6 °F 14.0 °F 74% 30.02 in 10.0 mi WSW 5.8 mph - N/A Snow Light Snow
4:35 AM 21.2 °F 16.4 °F 14.0 °F 74% 30.02 in 10.0 mi WSW 3.5 mph - N/A Snow Light Snow
4:55 AM 21.2 °F 16.4 °F 15.8 °F 80% 30.02 in 7.0 mi WSW 3.5 mph - N/A Snow Light Snow
5:15 AM 21.2 °F 16.4 °F 15.8 °F 80% 30.02 in 5.0 mi WSW 3.5 mph - N/A Snow Light Snow
5:35 AM 21.2 °F 14.9 °F 15.8 °F 80% 30.02 in 7.0 mi WSW 4.6 mph - N/A Snow Light Snow
5:55 AM 21.2 °F 16.4 °F 15.8 °F 80% 30.02 in 10.0 mi WSW 3.5 mph - N/A Snow Light Snow
6:15 AM 21.2 °F 11.7 °F 14.0 °F 74% 30.02 in 10.0 mi West 8.1 mph - N/A Snow Light Snow
6:35 AM 19.4 °F 9.5 °F 14.0 °F 80% 30.01 in 10.0 mi West 8.1 mph - N/A   Overcast
6:55 AM 19.4 °F 11.5 °F 14.0 °F 80% 30.01 in 10.0 mi West 5.8 mph - N/A   Scattered Clouds
7:15 AM 19.4 °F 10.4 °F 14.0 °F 80% 30.02 in 10.0 mi West 6.9 mph - N/A   Clear
7:35 AM 19.4 °F 14.3 °F 14.0 °F 80% 30.02 in 10.0 mi West 3.5 mph - N/A   Clear
7:55 AM 19.4 °F 12.8 °F 14.0 °F 80% 30.02 in 10.0 mi SW 4.6 mph - N/A   Scattered Clouds
8:15 AM 21.2 °F 16.4 °F 14.0 °F 74% 30.03 in 10.0 mi WSW 3.5 mph - N/A   Overcast
8:35 AM 21.2 °F 16.4 °F 14.0 °F 74% 30.03 in 10.0 mi WSW 3.5 mph - N/A Snow Light Snow
8:55 AM 21.2 °F 14.9 °F 14.0 °F 74% 30.04 in 10.0 mi SW 4.6 mph - N/A Snow Light Snow
9:15 AM 21.2 °F 16.4 °F 15.8 °F 80% 30.04 in 10.0 mi SW 3.5 mph - N/A Snow Light Snow
9:35 AM 23.0 °F 15.8 °F 15.8 °F 74% 30.03 in 10.0 mi SW 5.8 mph - N/A   Overcast
10:15 AM 23.0 °F 17.0 °F 15.8 °F 74% 30.03 in 5.0 mi SSW 4.6 mph - N/A Snow Light Snow
10:35 AM 23.0 °F 18.4 °F 17.6 °F 80% 30.02 in 7.0 mi WSW 3.5 mph - N/A Snow Light Snow
10:55 AM 23.0 °F - 17.6 °F 80% 30.01 in 7.0 mi Calm Calm - N/A Snow Light Snow
11:15 AM 24.8 °F 17.9 °F 17.6 °F 74% 30.00 in 10.0 mi WSW 5.8 mph - N/A   Overcast
11:35 AM 26.6 °F 21.2 °F 17.6 °F 69% 29.99 in 10.0 mi WSW 4.6 mph - N/A   Overcast
11:55 AM 26.6 °F 20.0 °F 17.6 °F 69% 29.97 in 10.0 mi West 5.8 mph - N/A   Overcast
12:15 PM 28.4 °F 24.6 °F 17.6 °F 64% 29.97 in 10.0 mi West 3.5 mph - N/A   Mostly Cloudy
12:35 PM 28.4 °F 21.2 °F 17.6 °F 64% 29.96 in 10.0 mi SSW 6.9 mph - N/A   Scattered Clouds
12:55 PM 30.2 °F 24.3 °F 19.4 °F 64% 29.95 in 10.0 mi SW 5.8 mph - N/A   Scattered Clouds
1:15 PM 30.2 °F 24.3 °F 19.4 °F 64% 29.94 in 10.0 mi SSW 5.8 mph 16.1 mph N/A   Scattered Clouds
1:35 PM 30.2 °F 24.3 °F 19.4 °F 64% 29.93 in 10.0 mi SW 5.8 mph - N/A   Scattered Clouds
1:55 PM 32.0 °F 27.5 °F 19.4 °F 60% 29.92 in 10.0 mi SW 4.6 mph - N/A   Clear
2:15 PM 32.0 °F 24.8 °F 19.4 °F 60% 29.91 in 10.0 mi SSW 8.1 mph - N/A   Clear
2:35 PM 32.0 °F 24.8 °F 19.4 °F 60% 29.91 in 10.0 mi SSW 8.1 mph - N/A   Clear
2:55 PM 32.0 °F 24.2 °F 21.2 °F 64% 29.90 in 10.0 mi SSW 9.2 mph - N/A   Clear
3:15 PM 33.8 °F 26.4 °F 21.2 °F 60% 29.89 in 10.0 mi SSW 9.2 mph - N/A   Clear
3:35 PM 33.8 °F 27.0 °F 21.2 °F 60% 29.88 in 10.0 mi SSW 8.1 mph - N/A   Clear
4:15 PM 33.8 °F 26.4 °F 21.2 °F 60% 29.86 in 10.0 mi SSW 9.2 mph - N/A   Clear
4:35 PM 33.8 °F 27.0 °F 21.2 °F 60% 29.86 in 10.0 mi SSW 8.1 mph - N/A   Clear
4:55 PM 33.8 °F 26.4 °F 21.2 °F 60% 29.87 in 10.0 mi SW 9.2 mph - N/A   Clear
5:15 PM 32.0 °F 27.5 °F 23.0 °F 69% 29.86 in 10.0 mi SSW 4.6 mph - N/A   Clear
5:35 PM 32.0 °F 27.5 °F 23.0 °F 69% 29.86 in 10.0 mi SW 4.6 mph - N/A   Clear
5:55 PM 32.0 °F 27.5 °F 23.0 °F 69% 29.86 in 10.0 mi SSW 4.6 mph - N/A   Clear
6:15 PM 30.2 °F 25.4 °F 23.0 °F 75% 29.86 in 10.0 mi SSW 4.6 mph - N/A   Clear
6:35 PM 30.2 °F 26.7 °F 23.0 °F 75% 29.86 in 10.0 mi SSW 3.5 mph - N/A   Clear
6:55 PM 28.4 °F 23.3 °F 23.0 °F 80% 29.86 in 10.0 mi SSW 4.6 mph - N/A   Scattered Clouds
7:15 PM 28.4 °F 24.6 °F 23.0 °F 80% 29.86 in 10.0 mi SSW 3.5 mph - N/A   Scattered Clouds
7:35 PM 28.4 °F 23.3 °F 23.0 °F 80% 29.86 in 10.0 mi SSW 4.6 mph - N/A   Clear
8:15 PM 26.6 °F 22.6 °F 23.0 °F 86% 29.84 in 10.0 mi SSW 3.5 mph - N/A   Clear
8:35 PM 26.6 °F 22.6 °F 23.0 °F 86% 29.84 in 10.0 mi SSW 3.5 mph - N/A   Clear
8:55 PM 26.6 °F 20.0 °F 23.0 °F 86% 29.83 in 10.0 mi SSW 5.8 mph - N/A   Clear
9:15 PM 26.6 °F 22.6 °F 23.0 °F 86% 29.83 in 10.0 mi SW 3.5 mph - N/A   Clear
9:35 PM 26.6 °F 21.2 °F 23.0 °F 86% 29.82 in 10.0 mi SW 4.6 mph - N/A   Clear
9:55 PM 26.6 °F 21.2 °F 23.0 °F 86% 29.82 in 7.0 mi SW 4.6 mph - N/A   Clear
10:15 PM 26.6 °F 22.6 °F 23.0 °F 86% 29.81 in 7.0 mi SW 3.5 mph - N/A   Clear
10:35 PM 19.4 °F - 17.6 °F 93% 29.81 in 5.0 mi Calm Calm - N/A   Clear
11:15 PM 15.8 °F - 15.8 °F 100% 29.80 in 4.0 mi Calm Calm - N/A   Clear
11:35 PM 17.6 °F - 17.6 °F 100% 29.80 in 4.0 mi Calm Calm - N/A   Clear
11:55 PM 15.8 °F 8.6 °F 15.8 °F 100% 29.80 in 1.8 mi SSW 4.6 mph - N/A   Mist